Regional Weather Roundup
Issued by NWS

Home | Current Version | Previous Version | Graphics & Text | Print | Product List | Glossary On
Versions: 1 2 3 4 5 6 7 8 9 10 11 12 13 14 15 16 17 18 19 20 21 22 23 24 25 26 27 28 29 30 31 32 33 34 35 36 37 38 39 40 41 42 43 44 45 46 47 48 49 50
587
ASUS43 KDMX 200001
RWRIA

WEATHER ROUNDUP FOR IOWA
NATIONAL WEATHER SERVICE DES MOINES IA
600 PM CST MON FEB 19 2018

NOTE: "FAIR" INDICATES FEW OR NO CLOUDS BELOW 12,000 FEET WITH NO
SIGNIFICANT WEATHER AND/OR OBSTRUCTIONS TO VISIBILITY.

* - THESE STATIONS ARE NOT NWS STATIONS...THUS NOT UNDER NWS
QUALITY CONTROL.  THEY ALSO DO NOT REPORT WEATHER SUCH
AS PRECIPITATION OR FOG.

IAZ001>003-012>014-020>022-031>034-043>046-200100-
   NORTHWEST IOWA

CITY           SKY/WX    TMP DP  RH WIND       PRES   REMARKS
CARROLL *      CLOUDY    25  23  93 N13       29.82R FOG     WCI  13
CHEROKEE *     CLOUDY    20  20  97 N8        29.83R WCI  11
DENISON *      CLOUDY    21  21 100 N10G17    29.85R FOG     WCI  10
LE MARS *      CLOUDY    19  18  93 MISG      29.87R
ORANGE CITY *  CLOUDY    19  18  93 N9G18     29.84R WCI   9
SHELDON *      CLOUDY    18  16  93 MISG      29.82F
SIOUX CITY     CLOUDY    20  18  92 N10       29.87R WCI   9
6HR MIN TEMP:  20; 6HR MAX TEMP:  20; 6HR PCP:  0.03;

SPENCER        MIX PCPN  21  18  88 N22       29.83R FOG     WCI   5
6HR MIN TEMP:  20; 6HR MAX TEMP:  21;

STORM LAKE *   CLEAR     19  19 100 MISG      29.80F
$$

IAZ055>058-069>071-079>083-090>094-200100-
   SOUTHWEST IOWA

CITY           SKY/WX    TMP DP  RH WIND       PRES   REMARKS
ATLANTIC *     CLOUDY    25  25 100 NW10      29.82S WCI  15
AUDUBON *      CLOUDY    25  21  86 CALM      29.81R
CLARINDA *     CLOUDY    28  28 100 NW12      29.86R WCI  18
COUNCIL BLFS * CLOUDY    23  23 100 NW9G15    29.85R WCI  13
CRESTON *      CLOUDY    28  28 100 NW12      29.80R FOG     WCI  18
HARLAN  *      CLOUDY    23  23 100 N10       29.86R WCI  12
LAMONI         CLOUDY    32  30  92 NW9       29.79R WCI  24
6HR MIN TEMP:  32; 6HR MAX TEMP:  38;

RED OAK *      CLOUDY    27  27 100 NW9       29.84R WCI  17
SHENANDOAH *   CLOUDY    27  25  93 NW9G15    29.86R WCI  17
$$

IAZ047>049-059>061-072>074-084-200100-
   CENTRAL IOWA

CITY           SKY/WX    TMP DP  RH WIND       PRES   REMARKS
AMES           CLOUDY    31  30  96 NW10      29.77R FOG     WCI  22
6HR MIN TEMP:  31; 6HR MAX TEMP:  35; 6HR PCP:  0.01;

ANKENY *       CLOUDY    30  30 100 NW12G17   29.79R FOG     WCI  21
BOONE *        FOG       28  28 100 MISG      29.77R VSB 1
CHARITON *     CLOUDY    32  32 100 W10       29.77R WCI  24
DES MOINES     FRZ DRZL  31  29  92 NW12      29.78R FOG     WCI  22
6HR MIN TEMP:  30; 6HR MAX TEMP:  36; 6HR PCP: TRACE;

GRINNELL*      FOG       34  34  99 W10       29.75R VSB 1   WCI  26
KNOXVILLE *    CLOUDY    34  34 100 W12       29.76R WCI  25
MARSHALLTOWN   FOG       34  34 100 W10       29.74R VSB 3/4 WCI  26
6HR MIN TEMP:  34; 6HR MAX TEMP:  39; 6HR PCP:  0.01;

NEWTON *       FOG       34  32  93 W10       29.76R VSB 3/4 WCI  26
PELLA *        CLOUDY    33  33  98 W10       29.78R FOG     WCI  25
PERRY *        CLOUDY    28  28  99 NW10      29.79F WCI  19
$$

IAZ004>006-015-016-023>025-035-036-200100-
   NORTH CENTRAL IOWA

CITY           SKY/WX    TMP DP  RH WIND       PRES   REMARKS
CLARION *      CLOUDY    28  28 100 N14       29.76S FOG     WCI  17
ESTHERVILLE    CLOUDY    19  18  95 N18       29.82R FOG     WCI   4
6HR MIN TEMP:  18; 6HR MAX TEMP:  20; 6HR PCP: TRACE;

FORT DODGE *   CLOUDY    25  24  96 N12       29.78F FOG     WCI  14
MASON CITY     CLOUDY    29  27  92 N18       29.76R FOG     WCI  16
6HR MIN TEMP:  29; 6HR MAX TEMP:  32; 6HR PCP: TRACE;

FOREST CITY *  CLOUDY    28  28 100 N9        29.77R FOG     WCI  20
WEBSTER CITY * CLOUDY    28  28 100 NW17      29.75R FOG     WCI  16
IOWA FALLS *   FOG       34  33  97 NW10      29.75R VSB 3/4 WCI  26
$$

IAZ007>011-017>019-026>030-037>042-050>054-066-200100-
   NORTHEAST IOWA

CITY           SKY/WX    TMP DP  RH WIND       PRES   REMARKS
CEDAR RAPIDS   LGT RAIN  44  43  96 SW8       29.71R
6HR MIN TEMP:  44; 6HR MAX TEMP:  50; 6HR PCP:  0.02;

CHARLES CITY * FOG       34  34 100 N8        29.72R VSB 1   WCI  27
CLINTON *      LGT RAIN  54  53  97 MISG        N/A
DECORAH *      FOG       36  36 100 E6        29.70R VSB 3/4 WCI  31
DUBUQUE        FOG       37  36  96 NE5       29.71R VSB 1/2 WCI  33
6HR MIN TEMP:  36; 6HR MAX TEMP:  39; 6HR PCP:  0.19;

MONTICELLO *   FOG       37  37 100 CALM      29.70R VSB 1/4
OELWEIN *      FOG       36  36 100 E3        29.70R VSB<1/4
WATERLOO       FOG       35  35 100 W5        29.71R VSB 1/2 WCI  31
6HR MIN TEMP:  35; 6HR MAX TEMP:  37; 6HR PCP:  0.05;

$$

IAZ064-065-067-068-078-200100-
   EAST CENTRAL IOWA

CITY           SKY/WX    TMP DP  RH WIND       PRES   REMARKS
DAVENPORT      LGT RAIN  59  56  89 SW12      29.74S FOG
6HR MIN TEMP:  59; 6HR MAX TEMP:  63; 6HR PCP:  0.04;

IOWA CITY      LGT RAIN  47  50 100 W9        29.75R
6HR MIN TEMP:  47; 6HR MAX TEMP:  60; 6HR PCP:  0.40;

MT. PLEASANT * DRIZZLE   54  54 100 W12       29.74R
MUSCATINE *    CLOUDY    54  54 100 SW7       29.74R FOG
QUAD CITIES    LGT RAIN  60  57  89 S18G25    29.71R
6HR MIN TEMP:  56; 6HR MAX TEMP:  63; 6HR PCP:  0.01;

$$

IAZ062-063-075>077-085>089-095>099-200100-
   SOUTHEAST IOWA

CITY           SKY/WX    TMP DP  RH WIND       PRES   REMARKS
BURLINGTON     LGT RAIN  60  57  89 S15       29.74R
6HR MIN TEMP:  59; 6HR MAX TEMP:  64; 6HR PCP:  0.03;

FAIRFIELD *    CLOUDY    41  41 100 W10       29.76R FOG
FORT MADISON * LGT RAIN  59  59 100 S13G20    29.75S
KEOKUK *       CLOUDY    61  59  94 S15G22    29.73F FOG
OSKALOOSA *    CLOUDY    36  35  98 W9        29.77R FOG     WCI  29
OTTUMWA        CLOUDY    38  36  92 W9        29.77R WCI  31
6HR MIN TEMP:  38; 6HR MAX TEMP:  66; 6HR PCP:  0.54;

WASHINGTON *   LGT RAIN  45  45 100 W13       29.76R
$$

ABBREVIATIONS USED IN REMARKS
   TC - TEMPERATURES IN CELSIUS
  WCI - WIND CHILL INDEX
   HX - HEAT INDEX
  VSB - VISIBILITY
$$





USA.gov is the U.S. government's official web portal to all federal, state and local government web resources and services.